Albertville, AL

1:13 AM CDT on May 24, 2017 (GMT -0500)
Albertville

Weather History for K8A0 - March, 2013

Change the Weather History Date:

Saturday, March 2, 2013

  Actual Average (KGAD) Record (KGAD)
Temperature  
Mean Temperature 34 °F -  
Max Temperature 35 °F 58 °F 80 °F (1932)
Min Temperature 32 °F 36 °F 19 °F (2005)
Degree Days  
Heating Degree Days 32    
Moisture  
Dew Point 30 °F    
Average Humidity 90    
Maximum Humidity 100    
Minimum Humidity 70    
Precipitation  
Precipitation 0.00 in - - ()
Sea Level Pressure  
Sea Level Pressure 30.04 in    
Wind  
Wind Speed 9 mph (NW)    
Max Wind Speed 15 mph    
Max Gust Speed 23 mph    
Visibility 9 miles    
Events Snow    
Averages and records for this station are not official NWS values.
T = Trace of Precipitation, MM = Missing Value Source: NWS Daily Summary

Daily Weather History Graph

Daily Weather History Graph

Search for Another Location

Airport or City:

Trip Planner

Search our weather history database for the weather conditions in past years. The results will help you decide how hot, cold, wet, or windy it might be!

Date:

Astronomy

Mar. 02, 2013 Rise Set
Actual Time 6:12 AM CST 5:42 PM CST
Civil Twilight 5:47 AM CST 6:07 PM CST
Nautical Twilight 5:18 AM CST 6:36 PM CST
Astronomical Twilight 4:49 AM CST 7:05 PM CST
Moon 11:04 PM CST (3/2) 8:55 AM CST (3/2)
Length of Visible Light 12h 20m
Length of Day
11h 30m
Waning Gibbous, 74% of the Moon is Illuminated
Mar 2
Waning Gibbous
Mar 4
Last Quarter
Mar 11
New
Mar 19
First Quarter
Mar 27
Full

Hourly Weather History & Observations

Time (CST) Temp. Windchill Dew Point Humidity Pressure Visibility Wind Dir Wind Speed Gust Speed Precip Events Conditions
12:15 AM 32.0 °F 25.6 °F 32.0 °F 100% 30.02 in 3.0 mi WNW 6.9 mph - N/A Snow Light Snow
12:35 AM 32.0 °F 27.5 °F 32.0 °F 100% 30.02 in 4.0 mi NW 4.6 mph - N/A Snow Light Snow
12:55 AM 32.0 °F 27.5 °F 32.0 °F 100% 30.02 in 4.0 mi WNW 4.6 mph - N/A Snow Light Snow
1:15 AM 32.0 °F 24.8 °F 32.0 °F 100% 30.01 in 5.0 mi NW 8.1 mph - N/A Snow Light Snow
1:35 AM 32.0 °F 24.8 °F 32.0 °F 100% 30.01 in 3.0 mi WNW 8.1 mph - N/A Snow Light Snow
1:55 AM 32.0 °F 24.2 °F 32.0 °F 100% 30.00 in 7.0 mi WNW 9.2 mph - N/A Snow Light Snow
2:15 AM 32.0 °F 24.8 °F 32.0 °F 100% 30.00 in 5.0 mi WNW 8.1 mph - N/A Snow Light Snow
2:35 AM 32.0 °F 25.6 °F 32.0 °F 100% 29.99 in 3.0 mi WNW 6.9 mph - N/A Snow Light Snow
2:55 AM 32.0 °F 25.6 °F 32.0 °F 100% 29.99 in 4.0 mi WNW 6.9 mph - N/A Snow Light Snow
3:15 AM 32.0 °F 26.4 °F 32.0 °F 100% 29.99 in 7.0 mi WNW 5.8 mph - N/A   Overcast
3:35 AM 32.0 °F 26.4 °F 32.0 °F 100% 29.99 in 7.0 mi WNW 5.8 mph - N/A   Overcast
3:55 AM 32.0 °F 25.6 °F 32.0 °F 100% 29.99 in 10.0 mi WNW 6.9 mph - N/A   Overcast
4:15 AM 32.0 °F 24.8 °F 32.0 °F 100% 29.99 in 10.0 mi WNW 8.1 mph - N/A   Overcast
4:35 AM 32.0 °F 26.4 °F 32.0 °F 100% 29.99 in 10.0 mi WNW 5.8 mph - N/A   Overcast
4:55 AM 32.0 °F 27.5 °F 32.0 °F 100% 29.99 in 10.0 mi NW 4.6 mph - N/A   Overcast
5:15 AM 32.0 °F 25.6 °F 32.0 °F 100% 30.00 in 7.0 mi WNW 6.9 mph - N/A Snow Light Snow
5:35 AM 32.0 °F 26.4 °F 32.0 °F 100% 30.00 in 7.0 mi WNW 5.8 mph - N/A Snow Light Snow
5:55 AM 32.0 °F 25.6 °F 32.0 °F 100% 30.00 in 4.0 mi NW 6.9 mph - N/A Snow Light Snow
6:15 AM 32.0 °F 25.6 °F 32.0 °F 100% 30.00 in 7.0 mi NW 6.9 mph - N/A Snow Light Snow
6:35 AM 32.0 °F 24.8 °F 32.0 °F 100% 30.01 in 4.0 mi NW 8.1 mph - N/A Snow Light Snow
6:55 AM 32.0 °F 24.8 °F 32.0 °F 100% 30.01 in 10.0 mi NNW 8.1 mph - N/A   Overcast
7:15 AM 32.0 °F 23.6 °F 32.0 °F 100% 30.02 in 10.0 mi NNW 10.4 mph - N/A   Overcast
7:35 AM 32.0 °F 24.2 °F 32.0 °F 100% 30.03 in 10.0 mi NNW 9.2 mph - N/A   Overcast
7:55 AM 32.0 °F 23.6 °F 32.0 °F 100% 30.03 in 10.0 mi NNW 10.4 mph 16.1 mph N/A   Overcast
8:15 AM 33.8 °F 25.3 °F 30.2 °F 87% 30.04 in 10.0 mi NNW 11.5 mph 18.4 mph N/A   Mostly Cloudy
8:35 AM 33.8 °F 26.4 °F 28.4 °F 81% 30.04 in 10.0 mi NNW 9.2 mph 17.3 mph N/A   Overcast
8:55 AM 33.8 °F 25.3 °F 28.4 °F 81% 30.04 in 10.0 mi NW 11.5 mph - N/A   Overcast
9:15 AM 33.8 °F 25.3 °F 28.4 °F 81% 30.04 in 10.0 mi NNW 11.5 mph 19.6 mph N/A   Overcast
9:35 AM 33.8 °F 24.3 °F 28.4 °F 81% 30.04 in 10.0 mi NNW 13.8 mph - N/A   Overcast
9:55 AM 33.8 °F 25.8 °F 28.4 °F 81% 30.05 in 10.0 mi WNW 10.4 mph 17.3 mph N/A   Overcast
10:15 AM 33.8 °F 24.8 °F 28.4 °F 81% 30.05 in 10.0 mi WNW 12.7 mph - N/A   Overcast
10:55 AM 35.6 °F 27.5 °F 30.2 °F 81% 30.05 in 10.0 mi West 11.5 mph - N/A   Overcast
11:15 AM 35.6 °F 27.1 °F 28.4 °F 75% 30.05 in 10.0 mi West 12.7 mph 23.0 mph N/A   Overcast
11:35 AM 35.6 °F 27.1 °F 26.6 °F 70% 30.05 in 10.0 mi NNW 12.7 mph - N/A   Overcast
11:55 AM 35.6 °F 27.1 °F 28.4 °F 75% 30.04 in 10.0 mi NW 12.7 mph - N/A   Overcast
12:15 PM 33.8 °F 25.3 °F 26.6 °F 75% 30.04 in 10.0 mi NW 11.5 mph 17.3 mph N/A   Overcast
12:35 PM 33.8 °F 25.3 °F 28.4 °F 81% 30.03 in 10.0 mi WNW 11.5 mph - N/A   Overcast
12:55 PM 33.8 °F 27.7 °F 26.6 °F 75% 30.02 in 10.0 mi WNW 6.9 mph - N/A   Overcast
1:15 PM 33.8 °F 26.4 °F 28.4 °F 81% 30.02 in 10.0 mi NW 9.2 mph - N/A   Overcast
1:35 PM 33.8 °F 23.9 °F 28.4 °F 81% 30.02 in 10.0 mi NW 15.0 mph - N/A   Overcast
1:55 PM 33.8 °F 26.4 °F 28.4 °F 81% 30.02 in 10.0 mi WNW 9.2 mph - N/A   Overcast
2:15 PM 33.8 °F 24.8 °F 28.4 °F 81% 30.02 in 10.0 mi NNW 12.7 mph - N/A   Overcast
2:35 PM 33.8 °F 27.0 °F 28.4 °F 81% 30.02 in 10.0 mi NW 8.1 mph - N/A   Overcast
2:55 PM 33.8 °F 25.8 °F 30.2 °F 87% 30.02 in 10.0 mi WNW 10.4 mph - N/A Snow Light Snow
3:15 PM 33.8 °F 24.8 °F 30.2 °F 87% 30.03 in 10.0 mi WNW 12.7 mph - N/A Snow Light Snow
3:35 PM 33.8 °F 25.3 °F 30.2 °F 87% 30.03 in 10.0 mi WNW 11.5 mph - N/A   Overcast
4:15 PM 33.8 °F 24.8 °F 30.2 °F 87% 30.04 in 10.0 mi NW 12.7 mph - N/A   Overcast
4:35 PM 33.8 °F 24.8 °F 30.2 °F 87% 30.04 in 10.0 mi WNW 12.7 mph 17.3 mph N/A   Overcast
4:55 PM 33.8 °F 25.8 °F 28.4 °F 81% 30.05 in 10.0 mi NW 10.4 mph - N/A   Overcast
5:15 PM 33.8 °F 26.4 °F 30.2 °F 87% 30.06 in 10.0 mi NW 9.2 mph - N/A   Overcast
5:35 PM 33.8 °F 27.0 °F 30.2 °F 87% 30.06 in 10.0 mi NW 8.1 mph 16.1 mph N/A Snow Light Snow
5:55 PM 32.0 °F 23.6 °F 30.2 °F 93% 30.06 in 10.0 mi NW 10.4 mph - N/A Snow Light Snow
6:15 PM 32.0 °F 25.6 °F 30.2 °F 93% 30.07 in 7.0 mi WNW 6.9 mph - N/A Snow Light Snow
6:35 PM 32.0 °F 24.2 °F 32.0 °F 100% 30.07 in 10.0 mi NW 9.2 mph - N/A Snow Light Snow
6:55 PM 32.0 °F 24.2 °F 32.0 °F 100% 30.07 in 10.0 mi NW 9.2 mph - N/A Snow Light Snow
7:15 PM 32.0 °F 23.0 °F 30.2 °F 93% 30.08 in 10.0 mi NW 11.5 mph - N/A Snow Light Snow
7:35 PM 32.0 °F 24.2 °F 30.2 °F 93% 30.08 in 7.0 mi NNW 9.2 mph - N/A Snow Light Snow
7:55 PM 32.0 °F 24.2 °F 30.2 °F 93% 30.08 in 7.0 mi NW 9.2 mph - N/A Snow Light Snow
8:15 PM 32.0 °F 23.6 °F 30.2 °F 93% 30.09 in 7.0 mi NNW 10.4 mph 19.6 mph N/A Snow Light Snow
8:55 PM 32.0 °F 22.5 °F 28.4 °F 87% 30.09 in 10.0 mi NNW 12.7 mph 18.4 mph N/A Snow Light Snow
9:15 PM 32.0 °F 23.6 °F 28.4 °F 87% 30.09 in 10.0 mi NNW 10.4 mph 17.3 mph N/A   Overcast
9:55 PM 32.0 °F 23.6 °F 28.4 °F 87% 30.09 in 10.0 mi NNW 10.4 mph 16.1 mph N/A   Overcast
10:15 PM 32.0 °F 23.0 °F 28.4 °F 87% 30.09 in 10.0 mi NNW 11.5 mph 16.1 mph N/A   Overcast
10:35 PM 32.0 °F 24.2 °F 26.6 °F 80% 30.09 in 10.0 mi NNW 9.2 mph 18.4 mph N/A Snow Light Snow
10:55 PM 32.0 °F 23.0 °F 26.6 °F 80% 30.09 in 10.0 mi NNW 11.5 mph 18.4 mph N/A   Overcast
11:15 PM 32.0 °F 24.8 °F 26.6 °F 80% 30.09 in 10.0 mi NNW 8.1 mph 17.3 mph N/A   Overcast
11:35 PM 32.0 °F 23.0 °F 26.6 °F 80% 30.09 in 10.0 mi NNW 11.5 mph 18.4 mph N/A   Overcast
11:55 PM 32.0 °F 23.6 °F 26.6 °F 80% 30.09 in 10.0 mi NNW 10.4 mph 18.4 mph N/A   Overcast